Location: Howard City Library
(37.4684°N, 96.2639°W)
Time: 18:22:39
(UTC+00:00)

Cosmos 1943 Rocket - Pass Details

Date: 18 February 2020
Orbit: 814 x 842 km, 71.0° (Epoch: 31 March)

Event Time Altitude Azimuth Distance (km) Brightness Sun altitude
Rises 02:03:46 0° 212° (SSW) 3,366 5.7 -23.9°
Reaches altitude 10° 02:06:15 10° 217° (SW) 2,431 5.0 -24.4°
Maximum altitude 02:11:43 56° 295° (WNW) 983 2.7 -25.5°
Enters shadow 02:17:05 10° 13° (NNE) 2,396 4.5 -26.6°
